CAPE
0 0 0 0 0 0 0 0 0 0 0 0 0 0 0 0 0 0 0 0 0 0
0 0 0 0 0 0 0 0 0 0 0 0 0 0 0 0 0 0 0 0 0 0
0 0 0 0 0 0 0 0 0 0 0 0 0 0 0 0 0 0 0 0 0 0
0 0 0 0 0 0 0 0 0 0 0 0 0 0 0 0 0 0 0 0 0 0
0 0 0 0 0 0 0 0 0 0 0 0 0 0 0 0 0 0 0 0 0 0
0 0 0 0 0 0 0 0 0 0 0 0 0 0 0 0 0 0 0 0 0 0
0 0 0 0 0 0 0 0 0 0 0 0 0 0 0 0 0 0 0 0 0 0
0 0 0 0 0 0 0 0 0 0 0 0 0 0 0 0 0 0 0 0 0 0
0 0 0 0 0 0 0 0 0 0 0 0 0 0 0 0 0 0 0 0 0 0
0 0 0 0 0 0 0 0 0 0 0 0 0 0 0 0 0 0 0 0 0 0
0 0 0 0 0 0 0 0 0 0 0 0 0 0 0 0 0 0 0 0 0 0
0 0 0 0 0 0 0 0 0 0 0 0 0 0 0 0 0 0 0 0 0 0
0 0 0 0 0 0 0 0 0 0 0 0 0 0 0 0 0 0 0 0 0 0
0 0 0 0 0 0 0 0 0 0 0 0 0 0 0 0 0 0 0 0 0 0
CIN
0 0 0 0 0 0 0 0 0 0 0 0 0 0 0 0 0 0 0 0 0 0
0 0 0 0 0 0 0 0 0 0 0 0 0 0 0 0 0 0 0 0 0 0
0 0 0 0 0 0 0 0 0 0 0 0 0 0 0 0 0 0 0 0 0 0
0 0 0 0 0 0 0 0 0 0 0 0 0 0 0 0 0 0 0 0 0 0
0 0 0 0 0 0 0 0 0 0 0 0 0 0 0 0 0 0 0 0 0 0
0 0 0 0 0 0 0 0 0 0 0 0 0 0 0 0 0 0 0 0 0 0
0 0 0 0 0 0 0 0 0 0 0 0 0 0 0 0 0 0 0 0 0 0
0 0 0 0 0 0 0 0 0 0 0 0 0 0 0 0 0 0 0 0 0 0
0 0 0 0 0 0 0 0 0 0 0 0 0 0 0 0 0 0 0 0 0 0
0 0 0 0 0 0 0 0 0 0 0 0 0 0 0 0 0 0 0 0 0 0
0 0 0 0 0 0 0 0 0 0 0 0 0 0 0 0 0 0 0 0 0 0
0 0 0 0 0 0 0 0 0 0 0 0 0 0 0 0 0 0 0 0 0 0
0 0 0 0 0 0 0 0 0 0 0 0 0 0 0 0 0 0 0 0 0 0
0 0 0 0 0 0 0 0 0 0 0 0 0 0 0 0 0 0 0 0 0 0
Wind_Speed
32 31 31 31 32 31 32 31 31 32 32 33 34 35 35 36 36 35 35 35 34 34
34 34 34 34 33 33 34 34 33 33 33 34 35 35 36 38 39 38 37 37 37 36
35 35 35 35 35 36 36 37 37 35 34 34 35 36 35 37 38 40 41 40 39 39
36 36 36 37 37 38 38 38 37 36 36 35 36 35 36 37 38 41 43 42 42 41
36 37 38 39 40 40 41 40 40 40 39 37 37 36 36 37 38 41 43 44 43 43
39 40 41 42 42 42 43 42 42 42 42 41 39 39 38 38 39 39 41 42 43 42
42 42 43 44 45 45 44 44 44 43 43 44 42 41 42 42 42 42 42 42 42 42
46 46 46 47 48 48 47 47 46 46 46 45 44 44 44 45 45 45 45 45 45 45
50 50 51 51 51 51 51 51 50 50 50 50 48 47 48 48 49 49 49 48 47 47
52 53 54 54 55 55 55 54 54 54 53 55 52 50 51 51 52 53 53 53 51 52
54 55 55 57 58 59 58 59 58 57 56 57 57 55 54 54 53 55 55 54 53 54
55 56 57 59 60 60 60 61 62 61 61 60 61 59 58 57 56 58 59 55 54 55
56 57 60 60 61 62 61 63 63 65 63 64 65 62 60 58 57 61 59 57 56 54
59 61 61 63 63 63 65 65 66 67 67 66 64 65 63 60 58 59 61 60 57 54
Wind_Direction
330 326 322 318 314 311 307 303 298 293 287 281 277 273 269 265 263 262 262 261 263 264
326 325 323 321 317 313 310 306 302 297 292 286 281 276 272 268 266 264 263 262 263 264
322 321 321 321 319 316 312 308 304 301 297 291 287 281 276 272 269 267 266 265 263 263
320 319 318 317 316 315 313 311 308 305 301 295 290 285 280 276 273 270 268 266 265 263
321 319 317 315 315 314 310 309 306 303 300 298 295 291 285 281 277 274 271 269 266 264
319 318 316 315 312 313 312 310 307 303 300 297 295 292 289 285 281 278 274 272 269 265
316 315 314 313 311 310 310 309 307 306 303 298 296 293 289 287 284 282 277 274 270 267
312 312 311 310 309 308 307 306 306 305 302 300 297 293 291 288 285 283 280 276 272 268
308 307 307 306 306 305 304 303 303 301 298 297 295 294 290 288 284 281 279 278 274 271
307 305 304 304 303 303 302 301 299 298 295 293 294 293 291 288 284 281 278 277 276 272
307 305 304 303 301 300 299 297 297 296 294 292 290 292 291 289 285 281 279 276 274 272
305 304 303 302 301 300 298 296 294 293 292 291 289 288 288 287 284 281 278 277 274 271
305 303 301 301 300 299 297 295 294 291 290 288 287 286 285 285 284 280 279 277 275 273
305 303 301 300 298 297 296 294 292 290 289 287 285 283 283 282 281 279 277 275 275 273